Regional Weather Roundup
Issued by NWS Little Rock, AR

Home | Current Version | Previous Version | Graphics & Text | Print | Product List | Glossary On
Versions: 1 2 3 4 5 6 7 8 9 10 11 12 13 14 15 16 17 18 19 20 21 22 23 24 25 26 27 28 29 30 31 32 33 34 35 36 37 38 39 40 41 42 43 44 45 46 47 48 49
000
ASUS44 KLZK 231805
RWRLZK

WEATHER ROUNDUP FOR ARKANSAS
NATIONAL WEATHER SERVICE LITTLE ROCK AR
100 PM CDT WED JUL 23 2014

NOTE: "FAIR" INDICATES FEW OR NO CLOUDS BELOW 12,000 FEET WITH NO
SIGNIFICANT WEATHER AND/OR OBSTRUCTIONS TO VISIBILITY.

ARZ001-003-010-029-231900-
NORTHWEST ARKANSAS

CITY           SKY/WX    TMP DP  RH WIND       PRES   REMARKS
FAYETTEVILLE   MOSUNNY   92  76  59 NW12      30.09F HX 104
6HR MIN TEMP:  72; 6HR MAX TEMP:  92;

FORT SMITH     MOSUNNY   94  77  57 W8        30.04F HX 108
6HR MIN TEMP:  77; 6HR MAX TEMP:  94;

HARRISON       PTSUNNY   92  75  57 NW6       30.07F HX 103
6HR MIN TEMP:  77; 6HR MAX TEMP:  94;

BENTONVILLE    CLOUDY    91  75  59 NW10      30.11S HX 102
6HR MIN TEMP:  75; 6HR MAX TEMP:  91;

ROGERS         PTSUNNY   90  75  61 W9        30.10F HX 100
6HR MIN TEMP:  75; 6HR MAX TEMP:  91;

SILOAM SPGS    PTSUNNY   91  73  55 NW8       30.10F HX 100
6HR MIN TEMP:  73; 6HR MAX TEMP:  91;

HIGHFILL       PTSUNNY   93  76  57 NW10      30.08F HX 105
6HR MIN TEMP:  75; 6HR MAX TEMP:  93;

SPRINGDALE     PTSUNNY   91  75  59 W9        30.10F HX 102
$$

ARZ004-005-016-231900-
NORTH CENTRAL ARKANSAS

CITY           SKY/WX    TMP DP  RH WIND       PRES   REMARKS
BATESVILLE     SUNNY     90  77  66 S3        30.01F HX 102
6HR MIN TEMP:  72; 6HR MAX TEMP:  90;

MTN HOME       MOSUNNY   92  77  61 VRB3      30.02F HX 105
6HR MIN TEMP:  75; 6HR MAX TEMP:  92;

$$

ARZ040-041-231900-
WEST CENTRAL ARKANSAS

CITY           SKY/WX    TMP DP  RH WIND       PRES   REMARKS
MENA           MOSUNNY   90  77  66 CALM      30.10F HX 102
MOUNT IDA      MOSUNNY   87  77  72 VRB3      30.04F HX  99
6HR MIN TEMP:  70; 6HR MAX TEMP:  87; 6HR PCP: TRACE;

$$

ARZ009-017-025-026-028-231900-
NORTHEAST ARKANSAS

CITY           SKY/WX    TMP DP  RH WIND       PRES   REMARKS
CORNING        LGT RAIN  91  75  59 S12       30.00F HX 102
JONESBORO      MOSUNNY   89  70  53 SW13      30.01F HX  94
6HR MIN TEMP:  72; 6HR MAX TEMP:  89;

NEWPORT        MOSUNNY   90  75  61 S14       30.01F HX 100
6HR MIN TEMP:  71; 6HR MAX TEMP:  90;

WALNUT RIDGE   SUNNY     91  61  35 S12       29.98F HX  91
6HR MIN TEMP:  73; 6HR MAX TEMP:  91;

BLYTHEVILLE    MOSUNNY   88  74  63 S7G16     30.03F HX  96
6HR MIN TEMP:  73; 6HR MAX TEMP:  89;

NW BLYTHEVILLE MOSUNNY   90  73  58 S10       30.02F HX  98
$$

ARZ022-023-033-042-044-231900-
CENTRAL ARKANSAS

CITY           SKY/WX    TMP DP  RH WIND       PRES   REMARKS
LITTLE ROCK    MOSUNNY   89  70  53 VRB6      30.03F HX  94
6HR MIN TEMP:  71; 6HR MAX TEMP:  89;

N LITTLE ROCK  MOSUNNY   87  76  71 W3        30.03F HX  97
6HR MIN TEMP:  73; 6HR MAX TEMP:  87;

JACKSONVILLE   MOSUNNY   89  75  63 SW5       30.03F HX  98
6HR MIN TEMP:  69; 6HR MAX TEMP:  89; 6HR PCP: TRACE;

SEARCY         MOSUNNY   89  75  63 SW7       30.03F HX  98
6HR MIN TEMP:  69; 6HR MAX TEMP:  88;

HOT SPRINGS    PTSUNNY   85  75  72 CALM      30.06F HX  93
6HR MIN TEMP:  71; 6HR MAX TEMP:  86; 6HR PCP: TRACE;

RUSSELLVILLE   MOSUNNY   91  78  65 SE3       30.03F HX 106
6HR MIN TEMP:  73; 6HR MAX TEMP:  91;

CLINTON        FAIR      91  81  70 SE3       30.02F HX 110
$$

ARZ036-231900-
EAST ARKANSAS

CITY           SKY/WX    TMP DP  RH WIND       PRES   REMARKS
WEST MEMPHIS   SUNNY     87  75  67 S8        30.02F HX  96
6HR MIN TEMP:  72; 6HR MAX TEMP:  88;

$$

ARZ050-053-066-070-073-231900-
SOUTHWEST ARKANSAS

CITY           SKY/WX    TMP DP  RH WIND       PRES   REMARKS
ARKADELPHIA    MOCLDY    89  76  65 CALM      30.06F HX 100
6HR MIN TEMP:  69; 6HR MAX TEMP:  89;

CAMDEN         MOSUNNY   90  68  48 CALM      30.05F HX  93
TEXARKANA      PTSUNNY   87  70  56 CALM      30.08F HX  92
6HR MIN TEMP:  70; 6HR MAX TEMP:  89;

EL DORADO      SUNNY     88  70  55 N3        30.08S HX  93
6HR MIN TEMP:  69; 6HR MAX TEMP:  89;

DE QUEEN       MOSUNNY   88  75  65 VRB3      30.06F HX  97
6HR MIN TEMP:  70; 6HR MAX TEMP:  88;

$$

ARZ056-057-069-231900-
SOUTHEAST ARKANSAS

CITY           SKY/WX    TMP DP  RH WIND       PRES   REMARKS
PINE BLUFF     MOSUNNY   88  70  55 CALM      30.06S HX  93
6HR MIN TEMP:  70; 6HR MAX TEMP:  88;

STUTTGART      SUNNY     90  73  58 W8        30.06F HX  98
6HR MIN TEMP:  72; 6HR MAX TEMP:  90;

MONTICELLO     MOSUNNY   88  71  57 NW5       30.05F HX  94
6HR MIN TEMP:  70; 6HR MAX TEMP:  88;


$$





USA.gov is the U.S. government's official web portal to all federal, state and local government web resources and services.